EagleSat-2

operational
NORAD ID: 66909 Int'l Des: NNA 1998-067 Owner: ERAU Country: US
LEOCIRCULAR

Über EagleSat-2

Beschreibung wird geladen...

Live-Position

3D-Globus wird geladen...

Nächste Überflüge

Höhenverlauf

Altitude vs Time

uPlot chart will show altitude changes over time

Zweizeiliger Elementsatz

1 66909U 98067XV 25347.69190829 .00073490 00000-0 12038-2 0 9994
2 66909 51.6299 137.6482 0004352 233.7111 126.3477 15.51801579 1763
Epoch: 13. Dez. 2025 • Age: 16 hours

Aktueller Status

Höhe 419.7 km
Geschwindigkeit 7.66 km/s
Subsatellitenpunkt 51.24°N, 3.54°E
Startdatum 14. Sept. 2025
Alter 0.2 years
Typ other

Technische Details

Klassifizierung Payload
Masse 5.00 kg
Trockenmasse 5.00 kg
Gesamtmasse 5.00 kg
Länge 0.30 m
Durchmesser 0.10 m
Spannweite 0.30 m
Form Box
Hersteller ERAU
Bus-Typ Cubesat 3U
Phasenstatus In Orbit
Besitzer/Staat ERAU/US

Große Konstellationen

Loading constellations...